Archiv-/Tagesdaten

--Timestamp---	Temp	Chill	HIndex	Humid	Dewpt	 Wind 	HiWind	WindDir	Rain 	Barom	Solar	 ET  	 UV 
--------------	----	-----	------	-----	-----	------	------	-------	-----	-----	-----	-----	----
20101008 00:00	11.8	11.8	11.8	92	10.6	5	10	45	0.0	1019.9	0	0.000	0.0
20101008 00:05	11.8	11.8	11.8	92	10.6	6	10	45	0.0	1019.9	0	0.000	0.0
20101008 00:10	11.8	11.8	11.8	92	10.5	5	8	45	0.0	1019.9	0	0.000	0.0
20101008 00:15	11.8	11.8	11.8	92	10.5	5	10	45	0.0	1019.8	0	0.000	0.0
20101008 00:20	11.8	11.8	11.8	92	10.5	5	10	45	0.0	1019.8	0	0.000	0.0
20101008 00:25	11.8	11.8	11.8	92	10.5	5	10	45	0.0	1019.7	0	0.000	0.0
20101008 00:30	11.8	11.8	11.8	92	10.5	6	10	45	0.0	1019.7	0	0.000	0.0
20101008 00:35	11.8	11.8	11.8	92	10.5	6	10	45	0.0	1019.7	0	0.000	0.0
20101008 00:40	11.7	11.7	11.7	92	10.5	5	8	45	0.0	1019.7	0	0.000	0.0
20101008 00:45	11.7	11.7	11.7	92	10.5	5	8	68	0.0	1019.6	0	0.000	0.0
20101008 00:50	11.7	11.7	11.7	92	10.5	5	10	68	0.0	1019.6	0	0.000	0.0
20101008 00:55	11.7	11.7	11.7	92	10.5	5	11	68	0.0	1019.5	0	0.000	0.0
20101008 01:00	11.7	11.7	11.7	92	10.4	5	8	68	0.0	1019.5	0	0.000	0.0
20101008 01:05	11.7	11.7	11.7	92	10.4	5	10	68	0.0	1019.4	0	0.000	0.0
20101008 01:10	11.7	11.7	11.7	92	10.4	5	8	68	0.0	1019.5	0	0.000	0.0
20101008 01:15	11.7	11.7	11.7	92	10.4	5	10	68	0.0	1019.5	0	0.000	0.0
20101008 01:20	11.6	11.6	11.6	92	10.4	6	10	68	0.0	1019.5	0	0.000	0.0
20101008 01:25	11.6	11.6	11.6	92	10.4	5	8	45	0.0	1019.5	0	0.000	0.0
20101008 01:30	11.6	11.6	11.6	92	10.3	6	11	45	0.0	1019.4	0	0.000	0.0
20101008 01:35	11.6	11.6	11.6	92	10.3	6	10	45	0.0	1019.4	0	0.000	0.0
20101008 01:40	11.5	11.5	11.5	92	10.2	6	10	68	0.0	1019.4	0	0.000	0.0
20101008 01:45	11.5	11.5	11.5	92	10.2	5	10	68	0.0	1019.4	0	0.000	0.0
20101008 01:50	11.5	11.5	11.5	92	10.2	5	8	45	0.0	1019.5	0	0.000	0.0
20101008 01:55	11.4	11.4	11.4	92	10.2	5	10	45	0.0	1019.5	0	0.000	0.0
20101008 02:00	11.4	11.4	11.4	92	10.2	5	10	90	0.0	1019.5	0	0.000	0.0
20101008 02:05	11.4	11.4	11.4	92	10.1	5	10	68	0.0	1019.5	0	0.000	0.0
20101008 02:10	11.3	11.3	11.3	92	10.1	6	11	68	0.0	1019.5	0	0.000	0.0
20101008 02:15	11.3	11.3	11.3	92	10.1	6	11	68	0.0	1019.5	0	0.000	0.0
20101008 02:20	11.3	11.3	11.3	92	10.0	6	11	68	0.0	1019.5	0	0.000	0.0
20101008 02:25	11.2	11.2	11.2	92	10.0	5	11	68	0.0	1019.5	0	0.000	0.0
20101008 02:30	11.2	11.2	11.2	92	10.0	5	10	90	0.0	1019.6	0	0.000	0.0
20101008 02:35	11.2	11.2	11.2	92	9.9	6	11	68	0.0	1019.6	0	0.000	0.0
20101008 02:40	11.1	11.1	11.1	92	9.9	5	10	68	0.0	1019.6	0	0.000	0.0
20101008 02:45	11.1	11.1	11.1	92	9.9	6	11	68	0.0	1019.6	0	0.000	0.0
20101008 02:50	11.1	11.1	11.1	92	9.8	8	14	68	0.0	1019.6	0	0.000	0.0
20101008 02:55	11.1	11.1	11.1	92	9.8	6	10	68	0.0	1019.6	0	0.000	0.0
20101008 03:00	11.0	11.0	11.0	93	9.9	6	11	68	0.0	1019.5	0	0.000	0.0
20101008 03:05	11.0	11.0	11.0	93	9.9	5	8	68	0.0	1019.5	0	0.000	0.0
20101008 03:10	10.9	10.9	10.9	93	9.9	5	8	68	0.0	1019.5	0	0.000	0.0
20101008 03:15	10.9	10.9	10.9	92	9.7	5	10	68	0.0	1019.5	0	0.000	0.0
20101008 03:20	10.9	10.9	10.9	92	9.7	5	8	68	0.0	1019.4	0	0.000	0.0
20101008 03:25	10.9	10.9	10.9	92	9.6	5	10	68	0.0	1019.4	0	0.000	0.0
20101008 03:30	10.8	10.8	10.8	92	9.6	3	10	68	0.0	1019.4	0	0.000	0.0
20101008 03:35	10.8	10.8	10.8	92	9.6	3	6	68	0.0	1019.4	0	0.000	0.0
20101008 03:40	10.8	10.8	10.8	93	9.7	5	10	68	0.0	1019.4	0	0.000	0.0
20101008 03:45	10.8	10.8	10.8	93	9.7	3	6	90	0.0	1019.5	0	0.000	0.0
20101008 03:50	10.8	10.8	10.8	93	9.7	3	10	90	0.0	1019.5	0	0.000	0.0
20101008 03:55	10.7	10.7	10.7	93	9.6	3	8	68	0.0	1019.5	0	0.000	0.0
20101008 04:00	10.7	10.7	10.7	93	9.6	5	8	90	0.0	1019.5	0	0.000	0.0
20101008 04:05	10.7	10.7	10.7	93	9.6	5	8	68	0.0	1019.5	0	0.000	0.0
20101008 04:10	10.6	10.6	10.6	93	9.5	3	8	68	0.0	1019.4	0	0.000	0.0
20101008 04:15	10.6	10.6	10.6	93	9.5	2	8	68	0.0	1019.3	0	0.000	0.0
20101008 04:20	10.6	10.6	10.6	93	9.5	2	5	68	0.0	1019.3	0	0.000	0.0
20101008 04:25	10.6	10.6	10.6	93	9.5	2	8	90	0.0	1019.3	0	0.000	0.0
20101008 04:30	10.5	10.5	10.5	93	9.4	3	8	90	0.0	1019.3	0	0.000	0.0
20101008 04:35	10.5	10.5	10.5	93	9.4	2	6	68	0.0	1019.3	0	0.000	0.0
20101008 04:40	10.5	10.5	10.5	93	9.4	3	6	68	0.0	1019.3	0	0.000	0.0
20101008 04:45	10.4	10.4	10.4	93	9.4	3	6	68	0.0	1019.2	0	0.000	0.0
20101008 04:50	10.4	10.4	10.4	93	9.4	3	6	90	0.0	1019.2	0	0.000	0.0
20101008 04:55	10.4	10.4	10.4	93	9.4	2	6	90	0.0	1019.2	0	0.000	0.0
20101008 05:00	10.4	10.4	10.4	93	9.3	3	8	90	0.0	1019.1	0	0.000	0.0
20101008 05:05	10.3	10.3	10.3	93	9.3	2	8	90	0.0	1019.1	0	0.000	0.0
20101008 05:10	10.3	10.3	10.3	93	9.3	3	6	90	0.0	1019.1	0	0.000	0.0
20101008 05:15	10.3	10.3	10.3	93	9.3	3	6	90	0.0	1019.1	0	0.000	0.0
20101008 05:20	10.3	10.3	10.3	93	9.2	3	5	90	0.0	1019.2	0	0.000	0.0
20101008 05:25	10.2	10.2	10.2	93	9.1	3	8	90	0.0	1019.2	0	0.000	0.0
20101008 05:30	10.2	10.2	10.2	93	9.1	5	8	68	0.0	1019.3	0	0.000	0.0
20101008 05:35	10.2	10.2	10.2	93	9.1	2	6	112	0.0	1019.4	0	0.000	0.0
20101008 05:40	10.2	10.2	10.2	93	9.1	0	6	112	0.0	1019.4	0	0.000	0.0
20101008 05:45	10.2	10.2	10.2	93	9.1	2	6	112	0.0	1019.4	0	0.000	0.0
20101008 05:50	10.1	10.1	10.1	93	9.0	3	10	90	0.0	1019.4	0	0.000	0.0
20101008 05:55	10.1	10.1	10.1	93	9.0	2	6	135	0.0	1019.4	0	0.000	0.0
20101008 06:00	10.1	10.1	10.1	93	9.0	3	8	135	0.0	1019.4	0	0.000	0.0
20101008 06:05	10.1	10.1	10.1	93	9.0	2	8	135	0.0	1019.4	0	0.000	0.0
20101008 06:10	10.1	10.1	10.1	93	9.0	2	6	135	0.0	1019.4	0	0.000	0.0
20101008 06:15	10.1	10.1	10.1	93	9.0	2	5	135	0.0	1019.3	0	0.000	0.0
20101008 06:20	10.0	10.0	10.0	93	8.9	2	8	135	0.0	1019.3	0	0.000	0.0
20101008 06:25	10.0	10.0	10.0	93	8.9	2	8	135	0.0	1019.4	0	0.000	0.0
20101008 06:30	9.9	9.9	9.9	93	8.9	3	8	135	0.0	1019.3	0	0.000	0.0
20101008 06:35	9.9	9.9	9.9	93	8.8	3	6	90	0.0	1019.3	0	0.000	0.0
20101008 06:40	9.9	9.9	9.9	93	8.9	2	5	90	0.0	1019.4	0	0.000	0.0
20101008 06:45	9.9	9.9	9.9	93	8.9	0	6	90	0.0	1019.3	0	0.000	0.0
20101008 06:50	9.9	9.9	9.9	93	8.9	3	6	90	0.0	1019.2	0	0.000	0.0
20101008 06:55	9.9	9.9	9.9	93	8.8	3	6	90	0.0	1019.2	0	0.000	0.0
20101008 07:00	9.8	9.8	9.8	93	8.8	5	8	68	0.0	1019.2	0	0.000	0.0
20101008 07:05	9.8	9.8	9.8	94	8.9	5	8	68	0.0	1019.3	0	0.000	0.0
20101008 07:10	9.8	9.8	9.8	94	8.9	5	8	68	0.0	1019.3	0	0.000	0.0
20101008 07:15	9.8	9.8	9.8	94	8.9	3	8	68	0.0	1019.3	0	0.000	0.0
20101008 07:20	9.7	9.7	9.7	93	8.6	2	5	68	0.0	1019.3	0	0.000	0.0
20101008 07:25	9.7	9.7	9.7	93	8.6	5	8	68	0.0	1019.3	0	0.000	0.0
20101008 07:30	9.7	9.7	9.7	94	8.8	5	10	68	0.0	1019.4	0	0.000	0.0
20101008 07:35	9.7	9.7	9.7	93	8.6	3	10	68	0.0	1019.4	0	0.000	0.0
20101008 07:40	9.7	9.7	9.7	94	8.7	2	6	90	0.0	1019.3	0	0.000	0.0
20101008 07:45	9.7	9.7	9.7	94	8.7	2	6	90	0.0	1019.4	0	0.000	0.0
20101008 07:50	9.7	9.7	9.7	94	8.7	2	6	90	0.0	1019.4	4	0.000	0.0
20101008 07:55	9.7	9.7	9.7	94	8.7	2	5	68	0.0	1019.4	7	0.000	0.0
20101008 08:00	9.7	9.7	9.7	94	8.7	2	5	68	0.0	1019.5	10	0.000	0.0
20101008 08:05	9.7	9.7	9.7	94	8.7	2	6	90	0.0	1019.4	11	0.000	0.0
20101008 08:10	9.7	9.7	9.7	94	8.8	0	3	90	0.0	1019.4	13	0.000	0.0
20101008 08:15	9.7	9.7	9.7	94	8.8	0	3	90	0.0	1019.4	15	0.000	0.0
20101008 08:20	9.7	9.7	9.7	94	8.8	3	6	90	0.0	1019.4	18	0.000	0.0
20101008 08:25	9.7	9.7	9.7	94	8.8	2	5	45	0.0	1019.4	18	0.000	0.0
20101008 08:30	9.7	9.7	9.7	94	8.8	3	6	45	0.0	1019.5	19	0.000	0.0
20101008 08:35	9.7	9.7	9.7	94	8.8	5	8	90	0.0	1019.5	21	0.000	0.0
20101008 08:40	9.7	9.7	9.7	94	8.7	3	6	68	0.0	1019.5	23	0.000	0.0
20101008 08:45	9.7	9.7	9.7	94	8.7	0	5	68	0.0	1019.6	22	0.000	0.0
20101008 08:50	9.7	9.7	9.7	94	8.7	5	8	68	0.0	1019.6	27	0.000	0.0
20101008 08:55	9.6	9.6	9.6	93	8.5	5	8	68	0.2	1019.6	30	0.000	0.0
20101008 09:00	9.6	9.6	9.6	93	8.5	3	8	68	0.0	1019.6	36	0.000	0.0
20101008 09:05	9.6	9.6	9.6	94	8.6	2	6	68	0.0	1019.7	37	0.000	0.0
20101008 09:10	9.6	9.6	9.6	94	8.7	3	6	90	0.0	1019.7	41	0.000	0.0
20101008 09:15	9.6	9.6	9.6	94	8.7	3	8	90	0.0	1019.8	44	0.000	0.0
20101008 09:20	9.6	9.6	9.6	94	8.7	3	8	315	0.0	1019.8	41	0.000	0.0
20101008 09:25	9.7	9.7	9.7	94	8.7	3	6	0	0.0	1019.8	45	0.000	0.0
20101008 09:30	9.7	9.7	9.7	94	8.7	3	10	68	0.0	1019.8	44	0.000	0.0
20101008 09:35	9.7	9.7	9.7	94	8.8	0	5	68	0.0	1019.9	45	0.000	0.0
20101008 09:40	9.7	9.7	9.7	94	8.8	2	5	68	0.0	1019.8	44	0.000	0.0
20101008 09:45	9.8	9.8	9.8	94	8.9	3	6	68	0.0	1019.8	49	0.000	0.0
20101008 09:50	9.8	9.8	9.8	94	8.9	2	5	68	0.0	1019.9	53	0.000	0.0
20101008 09:55	9.8	9.8	9.8	94	8.9	3	6	68	0.0	1019.9	58	0.000	0.0
20101008 10:00	9.9	9.9	9.9	94	9.0	3	6	68	0.0	1019.8	52	0.025	0.0
20101008 10:05	9.9	9.9	9.9	94	9.0	3	6	68	0.0	1019.9	61	0.000	0.0
20101008 10:10	9.9	9.9	9.9	94	9.0	2	5	90	0.0	1019.9	60	0.000	0.0
20101008 10:15	10.0	10.0	10.0	94	9.1	3	8	90	0.0	1019.8	65	0.000	0.0
20101008 10:20	10.1	10.1	10.1	94	9.1	2	6	135	0.0	1019.8	71	0.000	0.3
20101008 10:25	10.1	10.1	10.1	94	9.2	3	6	90	0.0	1019.9	88	0.000	0.6
20101008 10:30	10.2	10.2	10.2	94	9.2	3	6	90	0.0	1019.9	82	0.000	0.5
20101008 10:35	10.3	10.3	10.3	94	9.4	3	8	90	0.0	1019.9	84	0.000	0.6
20101008 10:40	10.3	10.3	10.3	93	9.2	5	10	68	0.0	1019.9	98	0.000	0.6
20101008 10:45	10.3	10.3	10.3	93	9.2	3	11	90	0.0	1019.9	99	0.000	0.7
20101008 10:50	10.3	10.3	10.3	93	9.3	5	10	90	0.0	1019.9	98	0.000	0.7
20101008 10:55	10.4	10.4	10.4	93	9.3	3	10	90	0.0	1020.0	104	0.000	0.7
20101008 11:00	10.4	10.4	10.4	93	9.4	2	6	90	0.0	1020.0	117	0.051	0.8
20101008 11:05	10.6	10.6	10.6	93	9.5	3	8	135	0.0	1020.0	119	0.000	0.8
20101008 11:10	10.6	10.6	10.6	93	9.5	5	10	68	0.0	1020.1	124	0.000	0.9
20101008 11:15	10.6	10.6	10.6	93	9.5	5	10	45	0.0	1020.1	129	0.000	0.9
20101008 11:20	10.7	10.7	10.7	93	9.6	3	6	112	0.0	1020.1	144	0.000	1.0
20101008 11:25	10.8	10.8	10.8	93	9.7	5	11	90	0.0	1020.1	140	0.000	1.0
20101008 11:30	10.8	10.8	10.8	92	9.6	5	11	90	0.0	1020.1	144	0.000	1.1
20101008 11:35	10.8	10.8	10.8	92	9.6	5	10	68	0.0	1020.0	154	0.000	1.2
20101008 11:40	10.9	10.9	10.9	92	9.6	5	11	90	0.0	1020.0	166	0.000	1.2
20101008 11:45	10.9	10.9	10.9	92	9.7	6	11	68	0.0	1020.1	173	0.000	1.3
20101008 11:50	11.0	11.0	11.0	92	9.7	5	10	135	0.0	1020.0	186	0.000	1.4
20101008 11:55	11.1	11.1	11.1	92	9.9	6	14	112	0.0	1020.0	193	0.000	1.4
20101008 12:00	11.2	11.2	11.2	91	9.8	6	11	90	0.0	1020.0	197	0.076	1.5
20101008 12:05	11.3	11.3	11.3	91	9.9	5	10	112	0.0	1020.0	193	0.000	1.5
20101008 12:10	11.4	11.4	11.4	91	10.0	5	13	68	0.0	1019.9	206	0.000	1.6
20101008 12:15	11.4	11.4	11.4	90	9.9	8	13	90	0.0	1019.9	195	0.000	1.5
20101008 12:20	11.4	11.4	11.4	90	9.9	5	13	68	0.0	1019.9	195	0.000	1.5
20101008 12:25	11.4	11.4	11.4	89	9.6	5	11	90	0.0	1019.9	185	0.000	1.5
20101008 12:30	11.4	11.4	11.4	90	9.9	6	11	90	0.0	1020.0	187	0.000	1.5
20101008 12:35	11.5	11.5	11.5	89	9.7	5	11	90	0.0	1020.0	188	0.000	1.4
20101008 12:40	11.6	11.6	11.6	89	9.9	6	14	90	0.0	1019.9	179	0.000	1.4
20101008 12:45	11.6	11.6	11.6	89	9.9	6	14	90	0.0	1019.9	183	0.000	1.5
20101008 12:50	11.7	11.7	11.7	89	10.0	6	11	90	0.0	1019.9	182	0.000	1.5
20101008 12:55	11.9	11.9	11.9	89	10.1	5	10	112	0.0	1019.9	213	0.000	1.8
20101008 13:00	12.0	12.0	12.0	89	10.2	5	10	68	0.0	1019.8	245	0.102	1.9
20101008 13:05	12.2	12.2	12.2	88	10.2	8	14	112	0.0	1019.8	219	0.000	1.9
20101008 13:10	12.3	12.3	12.3	87	10.2	6	16	90	0.0	1019.7	286	0.000	2.1
20101008 13:15	12.4	12.4	12.4	86	10.2	8	14	90	0.0	1019.8	206	0.000	1.8
20101008 13:20	12.6	12.6	12.6	86	10.3	6	11	90	0.0	1019.6	267	0.000	2.2
20101008 13:25	12.7	12.7	12.7	85	10.3	10	21	112	0.0	1019.6	242	0.000	2.1
20101008 13:30	12.8	12.8	12.8	84	10.1	6	13	90	0.0	1019.5	184	0.000	2.1
20101008 13:35	12.8	12.8	12.8	84	10.1	8	16	90	0.0	1019.6	172	0.000	2.1
20101008 13:40	12.7	12.7	12.7	83	9.9	6	16	90	0.0	1019.5	193	0.000	2.2
20101008 13:45	12.9	12.9	12.9	85	10.5	5	11	135	0.0	1019.5	226	0.000	2.8
20101008 13:50	13.3	13.3	13.3	82	10.3	11	19	112	0.0	1019.5	261	0.000	2.7
20101008 13:55	13.5	13.5	13.5	82	10.5	6	16	90	0.0	1019.5	376	0.000	3.0
20101008 14:00	13.9	13.9	13.9	82	10.9	5	10	90	0.0	1019.2	608	0.152	3.2
20101008 14:05	14.3	14.3	14.3	81	11.1	8	16	112	0.0	1019.3	572	0.000	3.1
20101008 14:10	14.5	14.5	14.5	79	10.9	8	16	135	0.0	1019.2	562	0.000	3.0
20101008 14:15	14.8	14.8	14.8	79	11.2	8	14	135	0.0	1019.2	540	0.000	2.9
20101008 14:20	15.0	15.0	15.0	77	11.0	6	18	135	0.0	1019.2	564	0.000	2.7
20101008 14:25	15.0	15.0	15.0	77	11.0	6	11	135	0.0	1019.2	536	0.000	2.8
20101008 14:30	15.2	15.2	15.2	76	11.0	3	8	135	0.0	1019.1	525	0.000	2.8
20101008 14:35	15.3	15.3	15.3	76	11.1	6	11	135	0.0	1019.0	514	0.000	2.7
20101008 14:40	15.4	15.4	15.4	77	11.4	3	11	135	0.0	1018.8	517	0.000	2.6
20101008 14:45	15.4	15.4	15.4	76	11.2	5	14	135	0.0	1018.8	528	0.000	2.5
20101008 14:50	15.7	15.7	15.7	77	11.6	3	8	112	0.0	1018.8	496	0.000	2.4
20101008 14:55	15.8	15.8	15.8	74	11.2	5	8	112	0.0	1018.7	492	0.000	2.3
20101008 15:00	15.9	15.9	15.9	74	11.3	5	8	112	0.0	1018.7	229	0.279	1.9
20101008 15:05	15.9	15.9	15.9	74	11.3	6	11	112	0.0	1018.7	409	0.000	2.1
20101008 15:10	15.9	15.9	15.9	73	11.1	6	11	68	0.0	1018.6	437	0.000	2.0
20101008 15:15	16.0	16.0	16.0	72	11.0	10	19	68	0.0	1018.6	448	0.000	2.0
20101008 15:20	16.0	16.0	16.0	72	11.0	6	11	68	0.0	1018.6	439	0.000	1.9
20101008 15:25	16.3	16.3	16.3	71	11.0	8	18	112	0.0	1018.6	423	0.000	1.9
20101008 15:30	16.3	16.3	16.3	69	10.6	8	16	90	0.0	1018.5	412	0.000	1.8
20101008 15:35	16.3	16.3	16.3	70	10.8	8	16	68	0.0	1018.5	406	0.000	1.7
20101008 15:40	16.4	16.4	16.4	71	11.2	5	14	90	0.0	1018.5	398	0.000	1.6
20101008 15:45	16.5	16.5	16.5	70	11.0	8	16	90	0.0	1018.4	392	0.000	1.5
20101008 15:50	16.5	16.5	16.5	70	11.0	6	11	68	0.0	1018.5	367	0.000	1.4
20101008 15:55	16.4	16.4	16.4	70	10.9	6	14	90	0.0	1018.5	366	0.000	1.4
20101008 16:00	16.4	16.4	16.4	71	11.2	6	16	112	0.0	1018.4	349	0.229	1.3
20101008 16:05	16.6	16.6	16.6	69	10.8	8	19	90	0.0	1018.5	312	0.000	1.2
20101008 16:10	16.4	16.4	16.4	69	10.7	8	18	112	0.0	1018.4	280	0.000	1.1
20101008 16:15	16.4	16.4	16.4	69	10.7	10	18	90	0.0	1018.4	253	0.000	1.0
20101008 16:20	16.3	16.3	16.3	70	10.8	6	11	112	0.0	1018.4	232	0.000	1.0
20101008 16:25	16.3	16.3	16.3	69	10.6	6	13	112	0.0	1018.5	260	0.000	0.9
20101008 16:30	16.4	16.4	16.4	70	11.0	6	11	135	0.0	1018.4	270	0.000	0.9
20101008 16:35	16.5	16.5	16.5	69	10.8	6	19	90	0.0	1018.4	263	0.000	0.8
20101008 16:40	16.4	16.4	16.4	69	10.7	6	13	90	0.0	1018.4	292	0.000	0.8
20101008 16:45	16.5	16.5	16.5	68	10.6	6	18	112	0.0	1018.3	279	0.000	0.7
20101008 16:50	16.6	16.6	16.6	69	10.8	5	10	90	0.0	1018.3	266	0.000	0.7
20101008 16:55	16.5	16.5	16.5	69	10.8	6	11	90	0.0	1018.3	252	0.000	0.6
20101008 17:00	16.4	16.4	16.4	68	10.5	8	18	68	0.0	1018.3	237	0.178	0.6
20101008 17:05	16.3	16.3	16.3	68	10.4	8	18	68	0.0	1018.4	222	0.000	0.5
20101008 17:10	16.3	16.3	16.3	69	10.6	6	14	68	0.0	1018.4	207	0.000	0.3
20101008 17:15	16.3	16.3	16.3	69	10.6	5	10	90	0.0	1018.4	191	0.000	0.0
20101008 17:20	16.3	16.3	16.3	68	10.4	6	16	90	0.0	1018.4	176	0.000	0.0
20101008 17:25	16.2	16.2	16.2	68	10.3	8	16	90	0.0	1018.4	160	0.000	0.0
20101008 17:30	16.1	16.1	16.1	68	10.1	6	13	135	0.0	1018.3	146	0.000	0.0
20101008 17:35	15.9	15.9	15.9	67	9.8	8	14	90	0.0	1018.4	132	0.000	0.0
20101008 17:40	15.8	15.8	15.8	68	9.9	6	11	90	0.0	1018.4	117	0.000	0.0
20101008 17:45	15.8	15.8	15.8	68	9.9	8	16	90	0.0	1018.3	104	0.000	0.0
20101008 17:50	15.7	15.7	15.7	69	10.0	6	11	90	0.0	1018.3	84	0.000	0.0
20101008 17:55	15.5	15.5	15.5	69	9.8	6	14	90	0.0	1018.3	56	0.000	0.0
20101008 18:00	15.3	15.3	15.3	70	9.9	6	13	90	0.0	1018.3	49	0.102	0.0
20101008 18:05	15.2	15.2	15.2	70	9.7	5	8	90	0.0	1018.5	44	0.000	0.0
20101008 18:10	15.0	15.0	15.0	70	9.6	5	11	90	0.0	1018.5	40	0.000	0.0
20101008 18:15	15.0	15.0	15.0	71	9.8	3	8	90	0.0	1018.5	34	0.000	0.0
20101008 18:20	14.9	14.9	14.9	71	9.7	5	8	90	0.0	1018.6	30	0.000	0.0
20101008 18:25	14.7	14.7	14.7	72	9.7	2	5	90	0.0	1018.6	25	0.000	0.0
20101008 18:30	14.5	14.5	14.5	73	9.7	0	3	90	0.0	1018.6	20	0.000	0.0
20101008 18:35	14.3	14.3	14.3	74	9.7	0	5	90	0.0	1018.6	15	0.000	0.0
20101008 18:40	14.1	14.1	14.1	75	9.7	0	3	90	0.0	1018.7	11	0.000	0.0
20101008 18:45	13.9	13.9	13.9	75	9.5	2	5	90	0.0	1018.7	6	0.000	0.0
20101008 18:50	13.7	13.7	13.7	76	9.5	2	6	90	0.0	1018.7	0	0.000	0.0
20101008 18:55	13.5	13.5	13.5	76	9.4	2	5	90	0.0	1018.7	0	0.000	0.0
20101008 19:00	13.3	13.3	13.3	77	9.4	2	6	90	0.0	1018.7	0	0.025	0.0
20101008 19:05	13.2	13.2	13.2	77	9.2	2	5	90	0.0	1018.9	0	0.000	0.0
20101008 19:10	13.0	13.0	13.0	77	9.1	3	6	90	0.0	1018.9	0	0.000	0.0
20101008 19:15	12.8	12.8	12.8	78	9.1	2	6	90	0.0	1018.8	0	0.000	0.0
20101008 19:20	12.7	12.7	12.7	78	8.9	2	5	90	0.0	1018.9	0	0.000	0.0
20101008 19:25	12.4	12.4	12.4	79	8.9	0	3	90	0.0	1018.8	0	0.000	0.0
20101008 19:30	12.3	12.3	12.3	80	9.0	2	5	90	0.0	1019.0	0	0.000	0.0
20101008 19:35	12.2	12.2	12.2	80	8.9	2	5	90	0.0	1019.0	0	0.000	0.0
20101008 19:40	12.1	12.1	12.1	80	8.8	3	6	90	0.0	1019.1	0	0.000	0.0
20101008 19:45	12.1	12.1	12.1	80	8.8	3	6	90	0.0	1019.1	0	0.000	0.0
20101008 19:50	12.1	12.1	12.1	79	8.5	3	6	90	0.0	1019.2	0	0.000	0.0
20101008 19:55	12.0	12.0	12.0	79	8.5	3	6	90	0.0	1019.2	0	0.000	0.0
20101008 20:00	11.9	11.9	11.9	79	8.4	3	6	90	0.0	1019.2	0	0.025	0.0
20101008 20:05	11.9	11.9	11.9	79	8.4	2	5	90	0.0	1019.2	0	0.000	0.0
20101008 20:10	11.8	11.8	11.8	80	8.4	3	6	90	0.0	1019.2	0	0.000	0.0
20101008 20:15	11.7	11.7	11.7	80	8.3	2	6	90	0.0	1019.3	0	0.000	0.0
20101008 20:20	11.6	11.6	11.6	80	8.2	2	5	90	0.0	1019.3	0	0.000	0.0
20101008 20:25	11.4	11.4	11.4	80	8.1	2	5	90	0.0	1019.3	0	0.000	0.0
20101008 20:30	11.3	11.3	11.3	80	8.0	3	8	68	0.0	1019.3	0	0.000	0.0
20101008 20:35	11.3	11.3	11.3	80	8.0	3	6	68	0.0	1019.3	0	0.000	0.0
20101008 20:40	11.2	11.2	11.2	80	7.9	3	8	68	0.0	1019.3	0	0.000	0.0
20101008 20:45	11.1	11.1	11.1	80	7.7	3	6	68	0.0	1019.4	0	0.000	0.0
20101008 20:50	10.9	10.9	10.9	81	7.8	3	6	68	0.0	1019.4	0	0.000	0.0
20101008 20:55	10.8	10.8	10.8	81	7.7	3	6	68	0.0	1019.4	0	0.000	0.0
20101008 21:00	10.8	10.8	10.8	81	7.6	2	6	68	0.0	1019.4	0	0.025	0.0
20101008 21:05	10.7	10.7	10.7	81	7.6	2	6	68	0.0	1019.4	0	0.000	0.0
20101008 21:10	10.7	10.7	10.7	81	7.5	2	5	68	0.0	1019.4	0	0.000	0.0
20101008 21:15	10.6	10.6	10.6	82	7.7	5	8	68	0.0	1019.4	0	0.000	0.0
20101008 21:20	10.6	10.6	10.6	82	7.6	5	10	45	0.0	1019.3	0	0.000	0.0
20101008 21:25	10.5	10.5	10.5	82	7.6	3	8	68	0.0	1019.3	0	0.000	0.0
20101008 21:30	10.4	10.4	10.4	82	7.5	2	5	68	0.0	1019.4	0	0.000	0.0
20101008 21:35	10.3	10.3	10.3	82	7.4	3	6	68	0.0	1019.3	0	0.000	0.0
20101008 21:40	10.2	10.2	10.2	82	7.3	2	6	68	0.0	1019.4	0	0.000	0.0
20101008 21:45	10.1	10.1	10.1	83	7.3	3	5	68	0.0	1019.4	0	0.000	0.0
20101008 21:50	9.9	9.9	9.9	83	7.2	2	6	68	0.0	1019.4	0	0.000	0.0
20101008 21:55	9.8	9.8	9.8	83	7.1	2	5	68	0.0	1019.5	0	0.000	0.0
20101008 22:00	9.7	9.7	9.7	84	7.1	2	5	68	0.0	1019.5	0	0.025	0.0
20101008 22:05	9.6	9.6	9.6	84	7.0	0	5	68	0.0	1019.4	0	0.000	0.0
20101008 22:10	9.5	9.5	9.5	84	6.9	3	5	68	0.0	1019.4	0	0.000	0.0
20101008 22:15	9.4	9.4	9.4	85	7.0	5	8	90	0.0	1019.4	0	0.000	0.0
20101008 22:20	9.3	9.3	9.3	85	6.9	3	8	90	0.0	1019.4	0	0.000	0.0
20101008 22:25	9.4	9.4	9.4	85	7.0	5	8	90	0.0	1019.5	0	0.000	0.0
20101008 22:30	9.4	9.4	9.4	85	7.0	3	8	90	0.0	1019.4	0	0.000	0.0
20101008 22:35	9.3	9.3	9.3	85	6.9	3	8	90	0.0	1019.4	0	0.000	0.0
20101008 22:40	9.3	9.3	9.3	85	6.9	3	6	90	0.0	1019.4	0	0.000	0.0
20101008 22:45	9.2	9.2	9.2	85	6.8	3	8	90	0.0	1019.4	0	0.000	0.0
20101008 22:50	9.2	9.2	9.2	85	6.8	3	6	90	0.0	1019.4	0	0.000	0.0
20101008 22:55	9.1	9.1	9.1	85	6.7	3	6	90	0.0	1019.5	0	0.000	0.0
20101008 23:00	9.0	9.0	9.0	85	6.6	2	6	90	0.0	1019.5	0	0.025	0.0
20101008 23:05	8.9	8.9	8.9	85	6.6	2	5	90	0.0	1019.4	0	0.000	0.0
20101008 23:10	8.9	8.9	8.9	85	6.5	2	6	90	0.0	1019.4	0	0.000	0.0
20101008 23:15	8.8	8.8	8.8	86	6.6	2	5	90	0.0	1019.4	0	0.000	0.0
20101008 23:20	8.7	8.7	8.7	86	6.5	0	6	90	0.0	1019.4	0	0.000	0.0
20101008 23:25	8.7	8.7	8.7	86	6.5	2	6	90	0.0	1019.5	0	0.000	0.0
20101008 23:30	8.6	8.6	8.6	86	6.4	2	6	112	0.0	1019.6	0	0.000	0.0
20101008 23:35	8.6	8.6	8.6	86	6.3	0	3	112	0.0	1019.7	0	0.000	0.0
20101008 23:40	8.4	8.4	8.4	86	6.2	0	5	112	0.0	1019.7	0	0.000	0.0
20101008 23:45	8.3	8.3	8.3	86	6.1	0	2	112	0.0	1019.8	0	0.000	0.0
20101008 23:50	8.2	8.2	8.2	86	6.0	0	3	112	0.0	1019.7	0	0.000	0.0
20101008 23:55	8.1	8.1	8.1	87	6.0	0	3	112	0.0	1019.7	0	0.000	0.0



Please note the license to use and transfer of this data:
http://creativecommons.org/licenses/by-nc-sa/3.0/deed.en

Bitte beachten sie die Lizenz zur Verwertung und Weitergabe der Daten:
http://creativecommons.org/licenses/by-nc-sa/3.0/deed.de

zurück zur Übersicht der Archivdaten (Monats und Tagesdaten)

Cookies helfen bei der Bereitstellung von Inhalten. Durch die Nutzung dieser Seiten erklärst du dich damit einverstanden, dass Cookies auf deinem Rechner gespeichert werden. Weitere Information